Theta_e
287 287 286 285 284 282 281 281 281 280 280 280 280 280 280 279 279 280 280 279 279 279
287 285 284 283 282 281 280 281 280 279 279 279 279 279 279 279 279 279 279 279 280 279
286 284 282 281 280 280 279 279 278 278 278 278 278 279 279 278 279 278 278 278 278 278
284 283 281 280 279 278 278 278 278 278 277 278 278 278 277 277 277 277 277 277 276 276
282 281 280 279 278 278 277 277 277 277 277 276 276 276 276 276 276 275 274 275 274 274
281 280 279 278 277 277 276 276 276 276 275 275 276 275 275 274 274 274 274 274 273 273
280 279 278 277 276 276 275 275 275 275 276 276 274 274 274 274 274 273 273 274 274 274
279 277 276 275 275 275 275 275 275 274 274 274 273 273 273 274 273 273 273 274 275 274
276 276 275 275 275 275 275 275 274 274 273 273 273 275 277 277 274 275 274 273 273 274
276 275 274 275 274 274 273 273 273 272 272 271 272 275 276 277 275 274 273 273 273 273
274 274 273 273 272 272 272 272 271 271 271 270 271 274 275 276 275 273 273 273 274 274
273 272 272 272 271 272 272 272 271 271 269 269 268 272 274 276 273 273 273 274 275 275
273 273 272 271 271 271 272 271 271 270 269 268 265 272 274 275 274 272 273 274 274 274
273 271 271 271 271 270 269 270 268 268 269 268 269 270 274 276 274 273 273 271 271 271
Wind_Speed
12 10 9 11 9 8 6 6 7 7 6 5 4 4 4 3 4 5 5 7 6 6
11 10 10 9 7 6 6 5 6 6 5 4 5 5 5 4 5 5 5 7 7 7
13 10 8 9 9 8 7 8 8 7 6 6 5 4 4 4 5 5 5 6 9 9
12 10 9 10 8 8 7 8 7 6 5 3 3 3 4 4 6 8 8 9 10 13
11 10 11 10 9 8 8 7 7 6 5 4 5 4 5 6 7 8 9 10 12 13
14 14 13 11 9 8 7 7 7 6 6 5 5 4 4 5 8 9 10 12 13 14
15 14 12 11 10 10 8 7 6 6 5 5 3 4 5 8 8 9 10 12 14 15
11 10 10 10 10 9 8 7 6 5 4 3 3 4 6 7 8 9 12 13 14 15
13 12 12 11 10 9 8 8 7 6 5 4 4 9 13 11 8 10 12 14 14 15
14 13 12 11 11 10 9 7 7 5 5 5 4 10 11 14 9 10 12 14 16 16
15 14 12 11 10 8 7 7 6 5 4 2 4 8 11 15 10 9 13 14 16 18
17 16 15 13 11 8 6 5 5 3 4 3 3 9 12 12 8 10 13 14 15 16
14 15 13 13 13 9 7 6 4 3 3 5 6 9 11 13 6 10 10 14 13 22
14 14 12 11 8 8 7 6 4 2 4 6 7 6 10 14 8 8 10 11 12 12
Wind_Direction
189 190 186 173 168 174 168 166 174 162 165 174 197 219 228 236 241 239 247 252 252 263
191 186 180 162 151 160 154 156 155 155 166 185 209 222 226 234 248 238 247 256 262 261
192 181 165 158 161 158 157 153 156 164 179 201 217 227 243 251 252 263 271 273 272 271
183 172 161 160 159 163 157 160 165 169 186 204 231 246 259 263 271 270 273 273 272 269
169 166 167 164 161 158 162 160 151 155 172 196 220 232 242 261 270 273 275 275 272 273
172 173 171 160 149 148 151 154 158 166 181 200 216 228 247 262 270 269 270 270 273 276
176 174 163 150 151 153 158 159 162 170 189 200 207 251 266 269 268 271 273 277 276 277
162 158 147 147 151 146 150 162 165 169 180 187 220 238 244 250 265 276 278 277 280 276
150 151 152 149 150 155 162 164 164 173 190 196 229 248 267 284 277 285 288 287 284 281
152 153 153 151 156 166 167 165 173 162 179 206 216 269 280 288 294 287 285 287 289 288
154 154 149 153 159 159 167 173 165 161 157 195 245 285 296 295 293 292 285 286 288 288
160 156 156 158 156 156 159 153 154 155 179 198 250 284 292 300 293 287 291 293 293 296
159 157 157 151 151 147 146 156 167 172 180 225 238 274 300 312 296 303 304 293 306 306
154 150 149 141 140 129 140 147 144 193 237 235 239 248 315 317 315 310 305 313 312 307